CZ-6A DEB, 56681

Orbit data source: Space-Track

CZ-6A DEB, 56681 is space debris in SSO originally from a launch on Fri, 11 Nov 2022 UTC launched from the Taiyaun Space Center, China (TSC). Debris objects in space refer to the collection of defunct objects orbiting the Earth. Examples of debris include non-operational satellites, rocket bodies, and fragments generated from explosions, collisions, or faulty payload assembly.

Loading next visibility...
Identifier
56681, 2022-151AHH
Orbit
SSO
Country
Flag of CNCN / PRC
Related business
Manufacturer
SAST
Mission
Spacecraft
Bus & Motor
Unknown
Mass
Unknown
Launch date (UTC)
2022-11-11 (4 years ago)
Launch vehicle
Unknown
Launch site
Taiyaun Space Center, China (TSC)
Object type
Payload
Rocket body
Debris
Shape & HBR
Unknown shape, 0.1 m
Radar Cross Section
Small (<0.1 m²)

Expand to show TLE details & history
Last TLE update: 3 days ago

TLE from 3 days ago
0 CZ-6A DEB
1 56681U 22151AHH 26170.46681984  .00001280  00000-0  61801-3 0  9999
2 56681  98.8068 182.2155 0028582 290.0895  69.7206 14.20197511166957
Epoch: 2026-06-19T11:12Z
TLE epoch observation values (Epoch: 2026-06-19T11:12:13.234Z)
Latitude
Longitude
106.46497°
Altitude
820.511 km
Speed
7.447 km/s
True Right ascension
12h 08m 51s
True Declination
0° 00' 00"
Sunlit
Object was in daylight at epoch
Visualization orbit readout
Latitude
Unknown
Longitude
Unknown
Altitude
Unknown
Speed
Unknown
Apparent Right ascension
Unknown
Apparent Declination
Unknown
Sunlit
N/A
Visualization observer readout
Local Sidereal Time
21:58:17
Azimuth
Unknown
Elevation
Unknown
Doppler factor
Unknown
Orbital elements
Apogee altitude
842.427 km
Perigee altitude
801.269 km
Semi-major axis
7,199.985 km
Eccentricity
0.00286
Inclination
98.8068°
RAAN
182.2155°
Arg. of periapsis
290.0895°
True anomaly
70.0282°
Mean anomaly
69.7206°
Eccentric anomaly
69.87436°
Mean motion
3.5526 °/min
Orbital period
101.33 mins
BSTAR
0.00061801
Loading maneuver chart data...
Computing Atmospheric mass density...
Loading historical data...
Loading historical data...
Loading historical data...
Loading historical data...
Loading historical data...
Loading historical data...
Loading historical data...

Documentation

Showing up to 5 results
|